Погода в Солдыбаеве

Россия / Чувашская Республика     55°52′06″N   48°08′06″E
темп.,
°C
ветер,
м/с
пор.,
м/с
влажн.,
%
обл.,
%
осадки,
мм/ч
давл.,
гПа
погр.,
м
1 марта, пн
пн100:00−18ссз349984 0.0 101752
03:00−19ссз3410082 0.1 101945
06:00−19ссз3499100 0.1 102057
09:00−17сз249799 0.1 1022141
12:00−13зсз349287 0.0 1021283
15:00−11з359391 0.0 1020321
18:00−13юз349692 0.0 101855
21:00−11юз499694 0.0 1016205
2 марта, вт
вт200:00−7юз61493100 0.0 1011464
03:00−5юз81495100 1.6 1008627
06:00−2зюз81695100 1.3 1003590
09:00+1з71399100 2.6 1001633
12:000з71397100 0.3 998764
15:00+1з6119497 0.4 999706
18:00−3з5139071 0.1 999367
21:00−3зсз5119482 0.1 1000382
3 марта, ср
ср300:00−5з5109594 0.1 1000237
03:00−7з499681 0.1 1000194
06:00−6зсз499587 0.1 1000282
09:00−5сз599390 0.2 1002484
12:00−4сз6890100 0.1 1003671
15:00−3сз61092100 0.3 1004791
18:00−6сз51191100 0.1 1005542
21:00−8зсз4119399 0.2 1007327
4 марта, чт
чт400:00−10з599585 0.0 1006190
03:00−10з489679 0.0 1006137
06:00−10юз479670 0.0 1005109
09:00−5зюз6129185 0.1 1003581
12:00−3юз81394100 0.3 999885
15:00−1зюз91595100 1.2 9961143
18:000зюз91695100 0.7 9931020
21:000зюз81595100 1.5 993905
5 марта, пт
пт500:00−1з81396100 0.9 992812
03:00−5з8168696 1.1 995779
06:00−9з7158971 0.0 999635
09:00−8зсз7129086 0.1 1003620
12:00−8зсз5890100 0.0 1007505
15:00−7з478991 0.0 1009495
18:00−12з33923 0.0 101124
21:00−14з22934 0.0 101220